Location: Unspecified
(0.0000°N, 0.0000°E)
Time: 15:52:57
(UTC+00:00)

A-11 Canister half - Visible Passes

Search period start: 20 April 2014 00:00
Search period end: 30 April 2014 00:00
Orbit: 1526 x 1683 km, 47.3° (Epoch: 19 April)

Date Brightness Start Highest point End Pass type
(mag) Time Alt. Az. Time Alt. Az. Time Alt. Az.
20 Apr 10.3 19:36:36 10° N 19:42:56 19° NE 19:43:27 18° NE visible
20 Apr 10.5 21:38:18 10° NW 21:41:47 26° NW 21:41:47 26° NW visible
21 Apr 10.4 19:15:26 10° N 19:21:21 17° NE 19:23:29 16° ENE visible
21 Apr 10.1 21:16:46 10° NW 21:21:49 36° NW 21:21:49 36° NW visible
22 Apr 10.5 18:54:20 10° NNE 18:59:45 16° NE 19:03:34 13° ENE visible
22 Apr 9.6 20:55:14 10° NW 21:01:54 49° NNW 21:01:54 49° NNW visible
23 Apr 10.6 18:33:17 10° NNE 18:38:08 14° NE 18:42:55 10° ENE visible
23 Apr 9.2 20:33:42 10° NW 20:42:02 64° N 20:42:02 64° N visible
24 Apr 10.6 18:12:21 10° NNE 18:16:32 13° NE 18:20:39 10° ENE visible
24 Apr 8.9 20:12:12 10° NNW 20:22:10 72° NE 20:22:13 72° NE visible
24 Apr 11.2 22:19:45 10° W 22:20:34 12° W 22:20:34 12° W visible
25 Apr 9.0 19:50:41 10° NNW 20:00:38 67° NE 20:02:27 58° E visible
25 Apr 10.9 21:57:53 10° W 22:00:48 18° W 22:00:48 18° W visible
26 Apr 9.1 19:29:12 10° NNW 19:39:06 63° NE 19:42:43 42° ESE visible
26 Apr 10.6 21:36:02 10° WNW 21:41:04 24° WSW 21:41:04 24° WSW visible
27 Apr 9.2 19:07:43 10° NNW 19:17:34 59° NE 19:23:01 29° ESE visible
27 Apr 10.3 21:14:13 10° WNW 21:21:22 30° WSW 21:21:22 30° WSW visible
28 Apr 9.3 18:46:15 10° NNW 18:56:01 55° NE 19:03:20 19° ESE visible
28 Apr 10.1 20:52:26 10° WNW 21:00:57 33° SW 21:01:42 32° SW visible
29 Apr 9.4 18:24:47 10° NNW 18:34:29 52° NE 18:43:40 11° ESE visible
29 Apr 10.1 20:30:39 10° WNW 20:39:25 35° SW 20:42:02 31° SSW visible
